Regional Weather Roundup
Issued by NWS

Home | Current Version | Previous Version | Text Only | Print | Product List | Glossary Off
Versions: 1 2 3 4 5 6 7 8 9 10 11 12 13 14 15 16 17 18 19 20 21 22 23 24 25 26 27 28 29 30 31 32 33 34 35 36 37 38 39 40 41 42 43 44 45 46 47 48 49 50

000
ASUS43 KMPX 240001
RWRMN
WEATHER ROUNDUP FOR MINNESOTA
NATIONAL WEATHER SERVICE TWIN CITIES/CHANHASSEN MN
700 PM CDT WED JUL 23 2014


NOTE: "FAIR" INDICATES FEW OR NO CLOUDS BELOW 12,000 FEET WITH NO
SIGNIFICANT WEATHER AND/OR OBSTRUCTIONS TO VISIBILITY. N/A MEANS
CURRENT SKY AND/OR WEATHER CONDITIONS ARE NOT AVAILABLE.

MNZ060>063-068>070-240100-
   Twin Cities Metro

CITY           SKY/WX    TMP DP  RH WIND       PRES   REMARKS
TWIN CITIES    MOSUNNY   79  48  33 W6        30.17F
6HR MIN TEMP:  78; 6HR MAX TEMP:  84;

ST PAUL        SUNNY     78  50  37 N8        30.17F
CRYSTAL        MOSUNNY   81  52  36 NW6       30.16F
LAKEVILLE      SUNNY     75  52  43 NW8       30.17F
EDEN PRAIRIE   SUNNY     79  48  33 N6        30.17F
6HR MIN TEMP:  79; 6HR MAX TEMP:  82;

SOUTH ST PAUL  SUNNY     79  47  32 NW6       30.17S
LAKE ELMO      FAIR      77  54  44 N5        30.18F
$$
MNZ001>005-007-008-013>017-022>024-027-028-240100-
   Northwest Minnesota

CITY           SKY/WX    TMP DP  RH WIND       PRES   REMARKS
BEMIDJI        SUNNY     73  53  50 NW9       30.21F
HALLOCK        MOSUNNY   73  48  40 NE3       30.20F
ROSEAU         SUNNY     72  55  56 E7        30.22F
WARROAD        SUNNY     72  54  53 E7        30.23F
THIEF RVR FALL SUNNY     72  55  56 NW6       30.21F
CROOKSTON      SUNNY     73  59  60 N6        30.21F
FOSSTON        SUNNY     75  57  53 NW5       30.22F
DETROIT LAKES  MOSUNNY   73  55  53 NW8       30.24F
MOORHEAD       SUNNY     75  61  60 NE7       30.21F
PARK RAPIDS    MOSUNNY   74  52  46 N8        30.21F
$$
MNZ006-009>011-018-025>026-240100-
   North Central Minnesota

CITY           SKY/WX    TMP DP  RH WIND       PRES   REMARKS
BAUDETTE       SUNNY     70  49  47 CALM      30.23F
FLAG ISLAND    SUNNY     70  46  43 NE7       30.21F
INTL FALLS     MOSUNNY   71  50  47 NE5       30.21F
6HR MIN TEMP:  68; 6HR MAX TEMP:  72;

WASKISH        SUNNY     73  55  53 CALM      30.21S
BIG FORK       SUNNY     72  52  49 NE3       30.22S
LONGVILLE      SUNNY     73  54  49 W6        30.21F
GRAND RAPIDS   MOSUNNY   70  54  56 CALM      30.21F
CRANE LAKE     MOSUNNY   66  54  63 CALM      30.23F
ORR            SUNNY     70  45  40 CALM      30.20F
COOK           MOSUNNY   70  48  46 N3        30.22F
$$
MNZ012-019>021-037-240100-
   Northeast Minnesota

CITY           SKY/WX    TMP DP  RH WIND       PRES   REMARKS
DULUTH         MOSUNNY   72  54  53 CALM      30.20S
6HR MIN TEMP:  71; 6HR MAX TEMP:  76;

ELY            MOSUNNY   70  46  43 NE6       30.22S
HIBBING        MOSUNNY   74  50  42 N8        30.21F
EVELETH        MOSUNNY   72  50  46 N6        30.22F
DULUTH HARBOR  SUNNY     64  57  77 NE3       30.19F
TWO HARBORS    MOSUNNY   70  54  56 CALM      30.18F
SILVER BAY     SUNNY     66  55  68 SE5       30.19S
GRAND MARAIS     N/A     55  51  86 CALM      30.20F
G MARAIS ARPRT PTSUNNY   64  46  52 NW6       30.23S
$$
MNZ029>031-032-039>041-046>048-054>057-064-240100-
   West Central Minnesota

CITY           SKY/WX    TMP DP  RH WIND       PRES   REMARKS
FERGUS FALLS   MOSUNNY   77  54  44 N6        30.20F
WHEATON        SUNNY     75  57  53 CALM      30.21F
MORRIS         SUNNY     77  61  57 NE6       30.20F
ALEXANDRIA     SUNNY     74  56  53 N5        30.23F
ELBOW LAKE     FAIR      75  58  55 N3        30.20F
WADENA         SUNNY     73  55  53 N8        30.21F
GLENWOOD       MOSUNNY   75  55  50 NW7       30.22F
APPLETON       SUNNY     81  52  36 NE7       30.19F
BENSON         SUNNY     77  55  47 NE6       30.21S
ORTONVILLE     SUNNY     79  55  44 NE3       30.20S
MADISON        SUNNY     79  57  47 E9        30.19F
WILLMAR        FAIR      79  52  38 N7        30.22S
$$
MNZ033>034-036-042>043-049>051-058-059-240100-
   Central Minnesota

CITY           SKY/WX    TMP DP  RH WIND       PRES   REMARKS
ST CLOUD       SUNNY     80  50  34 N5        30.19F
6HR MIN TEMP:  76; 6HR MAX TEMP:  82;

SAUK CENTRE    FAIR      75  54  47 N5        30.21F
PAYNESVILLE    MOSUNNY   75  52  44 N7        30.21F
AITKIN         MOSUNNY   77  54  44 W3        30.19F
PINE RIVER     SUNNY     75  55  50 NW5       30.24S
BRAINERD       SUNNY     74  51  44 N8        30.20F
STAPLES        MOSUNNY   72  54  53 NW6       30.21F
LONG PRAIRIE   FAIR      73  54  49 N5        30.21F
LITTLE FALLS   SUNNY     75  50  41 CALM      30.21S
LITCHFIELD     SUNNY     79  54  41 N7        30.21S
BUFFALO        SUNNY     78  46  32 N7        30.20S
MAPLE LAKE     SUNNY     78  54  44 N5        30.20F
$$
MNZ037-044-045-052-053-240100-
   East Central Minnesota

CITY           SKY/WX    TMP DP  RH WIND       PRES   REMARKS
PRINCETON      SUNNY     79  52  38 N5        30.19F
MORA           SUNNY     73  50  43 NW7       30.20F
CAMBRIDGE      SUNNY     79  59  50 NW5       30.17S
RUSH CITY      SUNNY     76  53  45 N5        30.18F
MOOSE LAKE     MOSUNNY   75  52  43 N7        30.17F
HINCKLEY       FAIR      73  61  64 CALM      30.18F
CLOQUET        MOSUNNY   73  46  38 N5        30.20S
MCGREGOR       SUNNY     75  55  50 N5        30.20S
$$
MNZ071>073-080-081-089-090-097-098-240100-
   Southwest Minnesota

CITY           SKY/WX    TMP DP  RH WIND       PRES   REMARKS
MONTEVIDEO     SUNNY     79  57  47 E10       30.21S
GRANITE FALLS  MOSUNNY   79  56  45 N7        30.21F
CANBY          SUNNY     79  55  42 NE6       30.20F
MARSHALL       SUNNY     79  54  41 NE8       30.18F
REDWOOD FALLS  SUNNY     80  54  40 N6        30.19F
OLIVIA         SUNNY     77  52  41 N9        30.19F
PIPESTONE      SUNNY     79  50  36 E7        30.21F
WINDOM         SUNNY     79  52  38 N5        30.21S
WORTHINGTON    SUNNY     77  54  44 N9        30.22S
JACKSON        SUNNY     77  52  41 N7        30.21S
TRACY          SUNNY     78  56  47 N6        30.21F
SLAYTON        SUNNY     76  49  38 CALM      30.22F
$$
MNZ065>067-074>077-082>085-091>093-240100-
   South Central Minnesota

CITY           SKY/WX    TMP DP  RH WIND       PRES   REMARKS
MANKATO        MOSUNNY   79  52  38 NW9       30.18F
NEW ULM        SUNNY     79  54  41 NW8       30.18F
ST JAMES       SUNNY     81  54  39 N5        30.20F
FAIRMONT       SUNNY     79  54  41 N7        30.19F
GLENCOE        SUNNY     78  51  38 N8G16     30.18F
FARIBAULT      SUNNY     81  45  28 N5        30.18F
OWATONNA       SUNNY     77  52  41 NW6       30.18F
WASECA         MOSUNNY   77  50  38 N3        30.20S
ALBERT LEA     SUNNY     77  52  41 CALM      30.18F
$$
MNZ078>079-086>088-094>096-240100-
   Southeast Minnesota

CITY           SKY/WX    TMP DP  RH WIND       PRES   REMARKS
ROCHESTER      SUNNY     76  54  46 NW9       30.19F
6HR MIN TEMP:  74; 6HR MAX TEMP:  80;

RED WING       SUNNY     79  52  38 CALM      30.15F
STANTON        MOSUNNY   79  52  39 NW6       30.15F
DODGE CENTER   SUNNY     75  57  53 N5        30.18F
WINONA         MOSUNNY   79  55  44 N5        30.15F
AUSTIN         SUNNY     79  48  34 N7        30.17F
PRESTON        SUNNY     73  60  64 N6        30.18F
$$
ABBREVIATIONS USED IN REMARKS
   TC - TEMPERATURES IN CELSIUS
  WCI - WIND CHILL INDEX
   HX - HEAT INDEX
  VSB - VISIBILITY
$$



USA.gov is the U.S. government's official web portal to all federal, state and local government web resources and services.